CANX-4

Last updated on Sun Apr 12 2026 00:03:55 GMT+0000 (Coordinated Universal Time)

1 40055U 14034C 26101.07123794 .00000860 00000+0 11790-3 0 9993 2 40055 98.3219 333.8915 0011821 222.9499 137.0790 14.81145640634598
UTC large
Height (km)
Speed (km/s)
/
Latitude / Longitude
Inclination (degrees)
Orbital Period (minutes)
Azimuth
Elevation
Range (km)
Doppler Factor

Next 0 passes for location: London (51.5072 / 0.1276)

Sorry there are no passes over London.
CANX-4